YAMAL 402

Last updated on Tue Sep 22 2026 00:03:12 GMT+0000 (Coordinated Universal Time)

1 39022U 12070A 26264.67523002 .00000083 00000+0 00000+0 0 9990 2 39022 1.5052 82.7870 0003594 92.9350 122.8232 1.00272295 50364
UTC large
Height (km)
Speed (km/s)
/
Latitude / Longitude
Inclination (degrees)
Orbital Period (minutes)
Azimuth
Elevation
Range (km)
Doppler Factor

Next 0 passes for location: London (51.5072 / 0.1276)

No passes found over London.
YAMAL 402